Weather in Ilyinskoye

Russia / Kostroma Oblast     57°38′51″N   40°55′44″E
temp.,
°C
wind,
m/s
gust,
m/s
humid.,
%
clouds,
%
prec.,
mm/h
press.,
hPa
HPBL,
m
26 october, tue
tue2600:00+2wsw71577100 0.0 1020653
03:00+2wsw71383100 0.1 1019546
06:00+1wsw51286100 0.0 1018488
09:00+1wsw5118891 0.0 1018422
12:00+4wsw6107587 0.0 1017575
15:00+4sw51075100 0.0 1016564
18:00+2sw51183100 0.0 1016353
21:00+2sw51183100 0.0 1015348
27 october, wed
wed2700:00+1sw51086100 0.0 1015324
03:00+1sw498898 0.0 1014277
06:00+1ssw41087100 0.0 1012298
09:00+2ssw51184100 0.0 1010447
12:00+4sw61274100 0.0 1008629
15:00+4wsw71281100 0.1 1006835
18:00+3wsw61494100 2.1 1006735
21:00+5w71490100 2.1 1006810
28 october, thu
thu2800:00+6w71188100 0.1 1007903
03:00+5w61187100 0.3 1007629
06:00+5wsw4988100 0.1 1007457
09:00+5wsw3789100 0.1 1008322
12:00+5w2592100 0.4 1008279
15:00+5nnw2595100 1.4 1009770
18:00+3nne61187100 0.3 1014694
21:00−2nne6128144 0.3 1020650
29 october, fri
fri2900:00−3nne510785 0.0 1024655
03:00−3nne47725 0.0 1027488
06:00−4nne247685 0.0 1030188
09:00−3se236499 0.0 1031258
12:000s4547100 0.0 1032508
15:00+1ssw5949100 0.0 1030610
18:000ssw61356100 0.2 1029489
21:00+1sw71661100 0.4 1027515
30 october, sat
sat3000:00+1sw61477100 0.0 1026418
03:00+2sw61490100 0.0 1026374
06:00+2sw51393100 0.0 1025351
09:00+3sw5139182 0.0 1025367
12:00+7sw6137853 0.0 1025496
15:00+7sw6137679 0.0 1024464
18:00+5sw61484100 0.0 1024364
21:00+4sw6148765 0.0 1023345